| time (UTC) | temp F | wind direction | speed MPH | gust MPH | rain 1hr in | rain 24hr in | rain mn in | humidity % | barometer mb |
| 20260502203105 | 62 | 256 | 9.0 | 13.0 | 0.00 | 0.00 | 0.00 | 38 | 1013.2 |
| 20260502201601 | 61 | 236 | 13.0 | 21.0 | 0.00 | 0.00 | 0.00 | 38 | 1013.6 |
| 20260502200050 | 60 | 229 | 12.0 | 18.0 | 0.00 | 0.00 | 0.00 | 38 | 1013.8 |
| 20260502194557 | 60 | 233 | 10.0 | 15.0 | 0.00 | 0.00 | 0.00 | 37 | 1014.0 |
| 20260502193054 | 59 | 243 | 10.0 | 13.0 | 0.00 | 0.00 | 0.00 | 40 | 1014.4 |
| 20260502191553 | 59 | 232 | 6.0 | 16.0 | 0.00 | 0.00 | 0.00 | 37 | 1014.8 |
| 20260502190051 | 58 | 249 | 7.0 | 13.0 | 0.00 | 0.00 | 0.00 | 38 | 1015.1 |
| 20260502184549 | 57 | 250 | 9.0 | 12.0 | 0.00 | 0.00 | 0.00 | 41 | 1015.4 |
| 20260502183053 | 57 | 236 | 10.0 | 13.0 | 0.00 | 0.00 | 0.00 | 39 | 1015.9 |
| 20260502181553 | 56 | 245 | 8.0 | 13.0 | 0.00 | 0.00 | 0.00 | 40 | 1016.1 |
| 20260502180104 | 56 | 247 | 7.0 | 14.0 | 0.00 | 0.00 | 0.00 | 41 | 1016.3 |
| 20260502163103 | 53 | 233 | 8.0 | 13.0 | 0.00 | 0.00 | 0.00 | 43 | 1017.7 |
| 20260502161555 | 52 | 249 | 8.0 | 14.0 | 0.00 | 0.00 | 0.00 | 45 | 1017.9 |
| 20260502160105 | 52 | 253 | 8.0 | 13.0 | 0.00 | 0.00 | 0.00 | 46 | 1018.2 |
| 20260502151551 | 50 | 259 | 11.0 | 15.0 | 0.00 | 0.00 | 0.00 | 48 | 1018.5 |
| 20260502123050 | 44 | 269 | 8.0 | 10.0 | 0.00 | 0.00 | 0.00 | 61 | 1018.9 |
| 20260502121555 | 44 | 264 | 5.0 | 7.0 | 0.00 | 0.00 | 0.00 | 61 | 1018.7 |
| 20260502113047 | 43 | 264 | 5.0 | 8.0 | 0.00 | 0.00 | 0.00 | 61 | 1018.7 |
| 20260502111549 | 43 | 282 | 7.0 | 9.0 | 0.00 | 0.00 | 0.00 | 61 | 1018.6 |
| 20260502110056 | 44 | 267 | 8.0 | 11.0 | 0.00 | 0.00 | 0.00 | 60 | 1018.6 |
| 20260502104554 | 44 | 278 | 6.0 | 8.0 | 0.00 | 0.00 | 0.00 | 61 | 1018.6 |
| 20260502103050 | 44 | 278 | 5.0 | 8.0 | 0.00 | 0.00 | 0.00 | 61 | 1018.6 |
| 20260502101604 | 44 | 265 | 6.0 | 8.0 | 0.00 | 0.00 | 0.00 | 62 | 1018.5 |
| 20260502100106 | 44 | 240 | 6.0 | 8.0 | 0.00 | 0.00 | 0.00 | 63 | 1018.5 |
| 20260502070058 | 46 | 253 | 8.0 | 12.0 | 0.00 | 0.00 | 0.00 | 56 | 1018.8 |
| 20260502064617 | 47 | 262 | 9.0 | 11.0 | 0.00 | 0.00 | 0.00 | 54 | 1018.8 |
| 20260502063059 | 47 | 264 | 8.0 | 10.0 | 0.00 | 0.00 | 0.00 | 56 | 1018.9 |
| 20260502061551 | 47 | 248 | 8.0 | 11.0 | 0.00 | 0.00 | 0.00 | 54 | 1019.0 |
| 20260502060054 | 47 | 259 | 7.0 | 10.0 | 0.00 | 0.00 | 0.00 | 54 | 1018.9 |
| 20260502054549 | 47 | 262 | 8.0 | 10.0 | 0.00 | 0.00 | 0.00 | 54 | 1019.0 |
| 20260502053058 | 47 | 256 | 8.0 | 10.0 | 0.00 | 0.00 | 0.00 | 59 | 1019.0 |
| 20260502051548 | 47 | 269 | 9.0 | 11.0 | 0.00 | 0.00 | 0.00 | 55 | 1019.1 |
| 20260502050051 | 45 | 285 | 0.0 | 4.0 | 0.00 | 0.00 | 0.00 | 68 | 1019.0 |
| 20260502044544 | 45 | 0 | 0.0 | 1.0 | 0.00 | 0.00 | 0.00 | 65 | 1018.9 |
| 20260502043123 | 45 | 0 | 0.0 | 2.0 | 0.00 | 0.00 | 0.00 | 66 | 1018.9 |
| 20260502041559 | 45 | 0 | 0.0 | 1.0 | 0.00 | 0.00 | 0.00 | 64 | 1018.9 |
| 20260502040050 | 44 | 230 | 0.0 | 1.0 | 0.00 | 0.00 | 0.00 | 65 | 1018.9 |
| 20260502034552 | 44 | 0 | 0.0 | 1.0 | 0.00 | 0.00 | 0.00 | 70 | 1019.0 |
| 20260502033054 | 45 | 0 | 0.0 | 1.0 | 0.00 | 0.00 | 0.00 | 69 | 1019.0 |
| 20260502031547 | 45 | 0 | 0.0 | 1.0 | 0.00 | 0.00 | 0.00 | 66 | 1019.0 |
| 20260502030057 | 45 | 0 | 0.0 | 1.0 | 0.00 | 0.00 | 0.00 | 65 | 1019.0 |
| 20260502004551 | 52 | 328 | 1.0 | 3.0 | 0.00 | 0.00 | 0.00 | 35 | 1018.4 |
| 20260502003049 | 52 | 341 | 3.0 | 6.0 | 0.00 | 0.00 | 0.00 | 41 | 1018.5 |
| 20260502001552 | 51 | 338 | 4.0 | 6.0 | 0.00 | 0.00 | 0.00 | 38 | 1018.4 |
| 20260502000046 | 52 | 320 | 3.0 | 6.0 | 0.00 | 0.00 | 0.00 | 38 | 1018.4 |
| 20260501234557 | 51 | 337 | 6.0 | 7.0 | 0.00 | 0.00 | 0.00 | 42 | 1018.4 |
| 20260501233102 | 52 | 291 | 7.0 | 12.0 | 0.00 | 0.00 | 0.00 | 41 | 1018.4 |
| 20260501231551 | 51 | 293 | 6.0 | 11.0 | 0.00 | 0.00 | 0.00 | 38 | 1018.4 |
| 20260501230049 | 51 | 309 | 7.0 | 13.0 | 0.00 | 0.00 | 0.00 | 38 | 1018.4 |
| 20260501224551 | 51 | 276 | 9.0 | 16.0 | 0.00 | 0.00 | 0.00 | 41 | 1018.4 |
| 20260501223053 | 51 | 310 | 4.0 | 9.0 | 0.00 | 0.00 | 0.00 | 37 | 1018.5 |
| 20260501221551 | 50 | 314 | 6.0 | 10.0 | 0.00 | 0.00 | 0.00 | 42 | 1018.6 |
| 20260501220108 | 50 | 314 | 6.0 | 14.0 | 0.00 | 0.00 | 0.00 | 39 | 1018.6 |
| 20260501214548 | 50 | 338 | 5.0 | 10.0 | 0.00 | 0.00 | 0.00 | 39 | 1018.6 |
| 20260501213051 | 50 | 305 | 1.0 | 6.0 | 0.00 | 0.00 | 0.00 | 39 | 1018.7 |
| 20260501211557 | 49 | 324 | 4.0 | 8.0 | 0.00 | 0.00 | 0.00 | 46 | 1018.7 |
| 20260501210048 | 49 | 338 | 5.0 | 8.0 | 0.00 | 0.00 | 0.00 | 40 | 1018.9 |
| 20260501204607 | 49 | 312 | 2.0 | 6.0 | 0.00 | 0.00 | 0.00 | 42 | 1019.1 |